Wind_Speed
15 15 16 16 17 18 17 17 17 17 18 19 21 21 21 22 22 22 21 20 20 20 20 20 21 21 20 20 20 19 18 18 17 16 15 14 13 13 12 11 10 10 9
15 14 15 15 16 17 17 17 17 17 18 19 20 21 22 23 23 23 24 23 22 21 21 21 21 22 22 22 22 22 21 21 20 18 18 17 16 15 14 14 13 12 11
14 14 14 14 14 15 16 17 17 18 18 19 20 21 21 22 23 23 24 24 24 24 24 24 22 23 24 24 24 24 24 23 22 22 21 20 19 18 17 16 16 15 13
13 13 14 14 14 15 16 17 17 18 19 20 21 21 21 22 22 22 23 24 24 25 25 24 24 24 25 26 26 26 25 26 25 24 24 23 22 21 20 19 18 17 16
13 13 14 14 15 16 17 17 18 19 19 20 21 21 22 22 22 22 23 24 24 25 25 24 25 25 26 27 28 28 28 27 27 27 26 26 25 24 23 22 21 20 19
13 13 13 14 15 16 16 17 18 18 19 20 20 21 22 23 23 23 24 25 25 25 25 25 26 27 28 28 28 28 29 29 28 28 27 27 27 27 26 25 24 22 21
13 13 14 14 15 16 16 17 18 18 19 19 20 21 22 23 24 25 25 26 26 26 27 27 27 28 29 29 30 29 30 31 30 30 30 29 29 29 29 28 27 26 24
13 13 14 14 15 15 16 17 18 18 18 19 19 21 22 24 24 25 26 27 28 28 29 29 29 29 30 31 31 32 31 32 32 32 32 32 31 30 30 31 30 28 27
12 13 14 15 15 16 17 17 18 19 20 20 20 21 22 23 25 26 26 27 28 29 30 31 31 31 31 32 33 33 33 33 33 33 34 34 33 33 32 32 32 31 30
13 14 16 16 17 18 19 19 20 21 22 23 23 24 24 24 25 26 27 28 28 30 31 32 32 33 33 33 33 35 34 34 34 34 35 36 36 35 34 34 34 33 33
15 17 18 19 20 21 22 22 23 23 24 25 26 27 27 27 28 28 29 30 30 30 31 32 34 34 34 34 35 35 36 36 36 36 36 37 38 38 36 36 35 35 35
17 19 20 21 22 23 24 24 25 26 27 27 28 29 30 31 31 30 31 32 32 33 33 33 34 35 36 36 36 37 37 38 39 39 38 38 38 38 38 38 38 38 37
19 21 22 22 23 24 25 26 27 28 29 29 30 31 32 33 34 34 34 34 34 35 35 35 36 37 37 38 38 39 39 40 41 41 41 40 39 39 39 38 39 39 39
21 22 23 24 25 26 26 27 28 29 30 31 31 32 33 34 35 36 36 36 37 37 37 37 37 38 38 38 39 40 40 41 42 42 42 42 41 41 41 40 39 39 39
23 25 26 27 27 28 29 29 30 31 31 31 32 32 33 35 36 37 38 38 39 39 39 40 40 40 40 40 40 41 41 42 43 43 43 43 43 42 42 41 40 39 39
25 27 28 29 30 30 31 31 32 32 32 32 32 33 33 34 35 36 37 38 39 39 39 41 42 42 42 41 41 41 42 43 43 44 44 44 43 44 43 42 42 41 40
27 29 30 31 32 33 33 33 33 33 33 33 33 33 33 33 33 34 35 36 37 38 38 40 43 43 43 43 43 43 43 44 45 45 45 45 45 44 44 43 43 43 42
29 30 32 33 33 34 35 35 35 35 34 34 34 33 33 32 32 33 33 34 35 36 37 37 40 43 44 44 43 43 44 45 46 46 46 46 46 45 45 45 44 44 43
30 32 33 34 35 35 36 36 35 35 34 34 33 33 33 32 32 33 33 33 33 34 35 36 38 41 42 43 44 44 45 45 46 46 47 47 47 47 46 46 45 45 44
32 33 35 36 36 36 36 36 35 35 34 34 34 34 33 33 33 33 33 33 33 34 35 35 36 38 40 42 43 43 44 45 46 47 47 48 48 47 47 46 46 45 45
34 35 36 36 37 37 37 36 35 35 35 35 35 35 34 33 33 32 33 33 34 34 34 34 35 36 38 40 42 42 43 44 45 47 47 47 48 48 48 48 47 46 45
35 36 37 37 38 38 37 36 36 35 35 35 35 35 34 33 32 32 32 33 33 33 34 34 34 35 36 39 41 42 42 43 44 46 47 47 48 48 48 48 47 47 47
36 37 37 38 39 39 38 38 37 36 35 35 35 34 34 33 32 32 31 32 33 33 33 33 34 35 36 38 40 41 43 43 44 45 45 46 47 48 48 48 47 47 47
36 37 38 39 39 39 39 38 37 36 36 35 35 34 33 33 32 32 32 32 32 33 34 34 33 34 36 37 39 40 41 42 43 44 45 45 46 47 48 48 48 47 47
38 39 40 40 40 40 39 38 38 37 36 36 35 34 33 32 32 31 31 31 31 33 34 34 33 34 35 36 37 39 40 41 42 43 44 44 45 47 48 48 48 47 47
40 41 41 41 41 41 40 40 39 38 37 36 35 34 33 32 32 31 30 30 31 32 32 33 32 33 34 36 37 38 39 41 41 42 43 43 44 46 46 48 48 48 47
Wind_Direction
288 286 289 288 286 284 280 279 275 271 269 268 268 267 267 268 269 264 260 258 255 254 251 247 242 240 237 232 231 230 229 228 227 227 227 226 224 223 221 219 216 214 212
290 289 290 291 286 281 280 279 278 272 272 271 267 267 266 266 267 262 259 259 256 253 252 248 243 242 239 235 234 234 232 231 230 230 230 230 228 228 226 224 222 220 219
293 291 291 293 290 283 281 279 278 276 274 271 269 269 269 267 264 262 260 258 256 251 251 250 246 244 241 239 236 235 235 232 231 232 233 232 231 230 228 227 225 223 224
293 295 292 291 289 285 281 280 278 277 275 272 270 270 270 268 264 261 259 257 255 252 251 248 248 245 242 240 239 237 236 234 233 234 234 233 232 231 230 228 227 226 226
299 297 294 293 290 286 284 282 279 278 275 272 270 269 267 266 264 262 261 258 255 252 250 249 248 245 243 241 240 239 237 236 235 234 234 233 232 231 231 230 229 228 228
304 300 296 294 291 288 287 285 282 279 277 274 271 268 266 265 264 262 261 258 254 252 251 250 247 246 244 244 241 239 237 236 235 234 233 233 233 232 231 231 231 230 230
305 302 299 297 294 292 291 289 286 284 280 276 273 270 268 266 264 263 261 258 255 253 251 249 249 247 245 244 242 241 239 237 236 236 235 233 233 233 232 231 231 231 231
311 309 308 305 302 298 294 292 291 289 286 282 277 273 270 268 266 264 261 259 257 254 252 250 249 248 245 244 242 241 240 239 237 236 236 234 234 234 233 232 232 232 232
318 315 313 311 309 305 301 297 295 292 289 286 282 278 274 271 269 266 263 260 257 254 253 252 250 249 247 244 241 239 238 239 238 236 235 235 234 234 234 234 233 233 233
323 320 316 313 311 309 306 302 299 294 291 288 284 281 277 274 272 269 266 262 258 255 253 251 250 248 246 244 242 240 238 238 238 237 235 234 234 235 235 236 234 234 233
326 322 319 316 313 310 307 303 299 296 292 289 286 283 279 276 273 270 269 265 261 258 255 252 250 248 246 244 242 241 239 238 236 236 236 236 236 236 235 235 236 235 233
329 326 323 319 315 311 307 304 301 298 294 290 287 284 280 277 274 271 268 266 263 259 256 254 251 249 247 244 242 241 240 239 237 237 237 237 237 236 235 236 236 235 234
333 329 325 322 318 314 311 307 304 301 297 293 289 286 282 278 275 272 269 266 264 261 258 255 252 250 248 245 243 241 240 239 239 238 237 237 237 237 235 235 235 235 234
334 330 327 324 321 319 316 312 308 305 301 297 293 289 285 281 277 273 270 266 263 261 259 257 253 250 248 246 243 241 240 239 239 238 237 236 236 236 236 235 234 235 235
333 331 329 327 324 321 318 315 312 309 305 301 297 293 288 284 280 275 271 267 263 260 258 256 254 252 249 247 245 243 241 239 238 238 238 237 236 236 236 235 233 234 234
330 330 328 326 325 323 320 317 314 311 307 303 299 295 291 287 283 279 274 270 266 261 257 256 254 252 249 247 245 243 242 239 238 238 237 236 236 236 236 235 234 234 234
328 327 326 325 324 323 320 318 315 312 308 305 301 297 293 289 285 281 278 274 269 264 259 255 254 252 250 247 245 243 241 239 238 237 236 236 236 236 235 234 234 233 233
327 327 326 326 324 323 320 318 316 312 309 306 303 300 295 291 286 283 280 276 272 267 262 257 255 253 251 248 245 242 240 239 238 238 237 236 235 235 234 234 234 232 232
325 326 326 326 324 323 321 319 317 314 311 308 305 301 298 293 289 285 281 277 273 269 265 260 256 253 251 249 246 243 241 239 238 238 237 236 235 234 233 233 233 232 232
324 325 325 325 325 324 322 320 318 314 312 310 306 303 300 295 291 286 282 278 275 271 268 263 258 254 251 249 246 243 241 239 238 237 237 236 234 233 232 232 231 231 231
321 323 324 324 324 324 323 320 318 315 312 310 307 305 302 298 293 288 284 279 276 273 270 266 261 256 252 249 246 243 241 239 238 237 236 235 234 232 232 231 230 230 231
320 322 323 323 323 323 322 320 318 314 312 310 308 306 304 300 295 291 285 281 278 275 272 267 262 258 254 250 247 244 241 239 238 237 235 234 233 232 231 231 229 229 229
319 320 321 322 322 322 321 319 318 315 313 311 309 307 305 301 297 293 288 284 279 276 272 268 263 260 256 252 248 245 242 239 237 236 234 232 232 230 230 229 228 228 228
319 320 321 322 322 320 319 318 318 316 314 312 310 308 305 301 298 294 290 286 282 278 275 270 265 261 257 253 249 245 243 240 237 235 234 232 230 229 228 228 227 226 226
318 319 320 321 321 320 320 318 317 316 314 312 311 309 306 302 299 296 292 288 285 281 276 272 267 262 258 254 249 246 243 240 236 234 233 231 229 228 227 226 225 224 225
318 318 319 319 320 320 319 318 317 316 314 312 310 308 305 303 300 297 294 290 286 283 279 273 267 264 259 254 250 246 242 239 236 233 232 230 228 226 225 224 223 223 224
Height
5878 5878 5877 5876 5875 5875 5875 5875 5874 5874 5874 5874 5874 5874 5874 5874 5875 5877 5878 5878 5879 5880 5881 5883 5885 5887 5888 5890 5892 5894 5896 5898 5900 5902 5904 5906 5908 5909 5911 5912 5913 5915 5916
5874 5874 5873 5872 5872 5872 5871 5871 5871 5871 5870 5870 5870 5869 5869 5869 5870 5871 5873 5874 5875 5876 5877 5879 5880 5882 5883 5885 5887 5890 5892 5894 5896 5899 5901 5903 5905 5907 5909 5910 5912 5913 5915
5871 5870 5870 5869 5868 5868 5868 5867 5867 5867 5866 5866 5865 5865 5865 5864 5865 5866 5867 5869 5870 5871 5872 5874 5875 5877 5878 5880 5882 5885 5887 5890 5892 5895 5897 5899 5902 5904 5906 5908 5909 5911 5913
5867 5867 5866 5865 5864 5864 5864 5863 5863 5862 5862 5861 5861 5861 5860 5859 5860 5861 5861 5863 5864 5866 5867 5868 5870 5871 5873 5875 5877 5880 5882 5884 5887 5890 5892 5895 5898 5900 5902 5904 5906 5908 5910
5864 5863 5862 5861 5860 5860 5859 5859 5858 5858 5857 5856 5856 5856 5855 5855 5855 5855 5856 5857 5858 5859 5861 5863 5864 5866 5868 5869 5871 5874 5876 5879 5881 5884 5887 5890 5893 5895 5898 5901 5903 5905 5907
5861 5859 5858 5857 5857 5856 5855 5854 5853 5853 5852 5851 5851 5850 5850 5850 5850 5850 5850 5851 5852 5853 5855 5856 5858 5860 5862 5864 5866 5868 5870 5873 5875 5878 5881 5884 5887 5890 5893 5896 5899 5901 5904
5858 5856 5855 5854 5853 5852 5851 5850 5849 5848 5846 5846 5845 5845 5844 5844 5844 5844 5845 5845 5846 5847 5848 5850 5852 5853 5856 5858 5860 5862 5864 5866 5869 5872 5875 5878 5881 5884 5887 5890 5893 5896 5899
5854 5853 5851 5850 5849 5848 5846 5845 5844 5842 5841 5841 5840 5840 5839 5839 5838 5838 5838 5839 5839 5840 5841 5843 5844 5846 5848 5851 5853 5855 5858 5860 5862 5865 5868 5872 5875 5878 5881 5885 5888 5891 5894
5851 5850 5848 5846 5845 5843 5842 5840 5839 5837 5836 5835 5834 5834 5833 5832 5832 5832 5831 5832 5832 5833 5834 5835 5837 5838 5841 5843 5846 5848 5850 5853 5855 5857 5861 5864 5868 5871 5875 5878 5881 5885 5888
5848 5846 5845 5842 5841 5839 5837 5835 5833 5832 5830 5829 5828 5827 5827 5826 5825 5824 5824 5824 5825 5825 5826 5827 5829 5830 5832 5835 5837 5840 5842 5845 5847 5850 5853 5856 5860 5864 5867 5871 5874 5878 5882
5845 5843 5840 5838 5836 5834 5831 5829 5827 5826 5824 5822 5820 5819 5819 5818 5817 5817 5816 5816 5817 5817 5818 5819 5820 5822 5824 5826 5828 5830 5833 5836 5839 5842 5845 5848 5852 5856 5859 5863 5867 5871 5874
5841 5839 5836 5833 5831 5828 5826 5823 5821 5818 5816 5814 5813 5811 5810 5809 5808 5808 5808 5807 5807 5808 5809 5810 5811 5812 5814 5816 5819 5821 5824 5827 5830 5833 5837 5840 5843 5847 5851 5855 5858 5862 5867
5838 5835 5832 5829 5825 5822 5819 5816 5813 5811 5808 5806 5804 5802 5800 5799 5798 5798 5798 5798 5798 5798 5799 5800 5801 5803 5804 5806 5809 5811 5814 5817 5820 5823 5827 5831 5835 5838 5842 5846 5850 5854 5858
5834 5830 5827 5823 5820 5816 5813 5809 5806 5803 5800 5797 5794 5792 5790 5788 5787 5786 5787 5787 5787 5788 5788 5789 5790 5792 5794 5796 5798 5801 5804 5807 5810 5813 5817 5821 5825 5829 5833 5837 5841 5845 5850
5829 5826 5822 5818 5814 5810 5806 5802 5798 5795 5791 5788 5785 5782 5780 5777 5776 5775 5774 5775 5776 5776 5777 5777 5779 5781 5783 5785 5788 5791 5794 5797 5800 5803 5807 5811 5815 5819 5823 5827 5832 5836 5841
5824 5820 5816 5812 5808 5803 5799 5795 5790 5786 5782 5779 5775 5772 5769 5767 5765 5763 5762 5762 5762 5764 5765 5765 5766 5768 5771 5774 5776 5779 5782 5785 5789 5792 5796 5800 5804 5809 5813 5817 5822 5827 5831
5819 5815 5811 5806 5801 5797 5792 5787 5783 5778 5774 5770 5766 5762 5759 5756 5754 5753 5751 5750 5750 5751 5753 5753 5753 5755 5758 5761 5764 5767 5771 5774 5777 5781 5784 5789 5793 5798 5802 5807 5812 5817 5821
5814 5809 5805 5800 5795 5789 5784 5779 5774 5769 5765 5761 5756 5753 5749 5747 5744 5742 5740 5739 5738 5738 5740 5741 5741 5742 5745 5748 5751 5755 5758 5762 5765 5769 5773 5777 5782 5787 5791 5796 5801 5806 5811
5808 5803 5798 5793 5788 5782 5777 5771 5766 5761 5756 5752 5747 5743 5740 5737 5734 5732 5730 5728 5727 5727 5727 5729 5729 5730 5732 5734 5738 5742 5745 5749 5753 5757 5761 5765 5770 5775 5780 5785 5790 5796 5801
5802 5797 5792 5786 5781 5775 5769 5763 5758 5753 5747 5743 5738 5734 5730 5727 5724 5721 5719 5718 5716 5716 5716 5716 5717 5718 5719 5721 5725 5729 5733 5736 5740 5745 5749 5753 5758 5763 5769 5774 5780 5785 5790
5795 5790 5785 5779 5773 5767 5761 5756 5750 5744 5739 5734 5729 5725 5720 5717 5713 5711 5709 5707 5705 5705 5704 5704 5705 5706 5707 5709 5712 5715 5720 5723 5728 5732 5737 5742 5746 5752 5757 5762 5768 5774 5779
5789 5783 5778 5772 5766 5760 5754 5748 5742 5736 5731 5726 5720 5716 5711 5707 5703 5700 5698 5696 5695 5693 5693 5693 5693 5694 5695 5697 5699 5703 5707 5711 5716 5720 5724 5729 5734 5740 5745 5751 5757 5763 5768
5781 5776 5770 5764 5758 5751 5745 5739 5733 5728 5722 5717 5711 5706 5702 5698 5694 5691 5688 5685 5684 5682 5681 5681 5682 5682 5683 5685 5687 5691 5694 5698 5703 5706 5711 5717 5722 5728 5733 5739 5745 5751 5757
5773 5767 5762 5756 5749 5743 5737 5731 5725 5719 5713 5707 5702 5697 5693 5688 5684 5681 5678 5675 5673 5671 5670 5670 5670 5670 5671 5672 5674 5678 5681 5685 5690 5694 5699 5705 5710 5715 5721 5727 5734 5740 5746
5765 5759 5753 5747 5741 5734 5728 5722 5716 5710 5704 5698 5693 5688 5683 5679 5675 5671 5668 5666 5663 5660 5659 5658 5658 5658 5659 5660 5662 5665 5669 5673 5678 5682 5686 5692 5698 5703 5709 5716 5722 5729 5735
5756 5750 5744 5738 5732 5725 5719 5713 5707 5701 5695 5690 5684 5679 5674 5670 5666 5662 5659 5656 5653 5650 5648 5647 5646 5647 5647 5648 5650 5653 5656 5660 5665 5670 5675 5680 5686 5691 5698 5705 5711 5718 5724